• en France
  • Liste des pays
  • À 7 jours
  • Température de l'eau
  • Carte satellitaire
  • Carte météo
  • Widgets météo
  • user-avatar
    Se connecter

    Météo par heure à Ngo

    Ce jour, 19 Août, Dimanche

    Heure Température Précipitation Vent Pression Humidité
    00:00 +28°C° 0 mm 1 m/s 710 mmHg 53%
    01:00 +27°C° 0 mm 2 m/s 710 mmHg 64%
    02:00 +26°C° 0,1 mm 2 m/s 710 mmHg 66%
    03:00 +26°C° 0,1 mm 2 m/s 710 mmHg 67%
    04:00 +26°C° 0,1 mm 2 m/s 710 mmHg 69%
    05:00 +26°C° 0,1 mm 2 m/s 710 mmHg 69%
    06:00 +26°C° 0,1 mm 2 m/s 711 mmHg 69%
    07:00 +26°C° 0,1 mm 3 m/s 711 mmHg 68%
    08:00 +27°C° 0 mm 3 m/s 711 mmHg 61%
    09:00 +29°C° 0 mm 3 m/s 712 mmHg 55%
    10:00 +31°C° 0 mm 2 m/s 712 mmHg 48%
    11:00 +31°C° 0,1 mm 2 m/s 711 mmHg 46%
    12:00 +32°C° 0,1 mm 2 m/s 711 mmHg 45%
    13:00 +32°C° 0,1 mm 2 m/s 710 mmHg 44%
    14:00 +32°C° 0,2 mm 2 m/s 710 mmHg 44%
    15:00 +32°C° 0,2 mm 2 m/s 709 mmHg 44%
    16:00 +32°C° 0,2 mm 2 m/s 709 mmHg 45%
    17:00 +31°C° 0,1 mm 1 m/s 709 mmHg 48%
    18:00 +30°C° 0,1 mm 1 m/s 709 mmHg 50%
    19:00 +29°C° 0,1 mm 1 m/s 709 mmHg 53%
    20:00 +28°C° 0,3 mm 1 m/s 710 mmHg 57%
    21:00 +27°C° 0,3 mm 1 m/s 710 mmHg 60%
    22:00 +27°C° 0,3 mm 1 m/s 711 mmHg 63%
    23:00 +26°C° 0,8 mm 2 m/s 711 mmHg 67%

    Demain, 20 Août, Lundi

    Heure Température Précipitation Vent Pression Humidité
    00:00 +25°C° 0,8 mm 2 m/s 711 mmHg 70%
    01:00 +25°C° 0,8 mm 2 m/s 711 mmHg 73%
    02:00 +25°C° 0 mm 2 m/s 711 mmHg 73%
    03:00 +24°C° 0 mm 3 m/s 710 mmHg 74%
    04:00 +24°C° 0 mm 3 m/s 710 mmHg 74%
    05:00 +24°C° 0 mm 3 m/s 710 mmHg 74%
    06:00 +24°C° 0 mm 3 m/s 711 mmHg 74%
    07:00 +23°C° 0 mm 4 m/s 711 mmHg 74%
    08:00 +26°C° 0 mm 4 m/s 712 mmHg 66%
    09:00 +28°C° 0 mm 4 m/s 712 mmHg 58%
    10:00 +30°C° 0 mm 4 m/s 712 mmHg 50%
    11:00 +33°C° 0 mm 4 m/s 712 mmHg 46%
    12:00 +34°C° 0 mm 3 m/s 711 mmHg 41%
    13:00 +36°C° 0 mm 3 m/s 711 mmHg 37%
    14:00 +35°C° 0 mm 3 m/s 710 mmHg 38%
    15:00 +35°C° 0 mm 3 m/s 709 mmHg 38%
    16:00 +34°C° 0 mm 3 m/s 708 mmHg 39%
    17:00 +32°C° 0 mm 2 m/s 709 mmHg 41%
    18:00 +31°C° 0 mm 2 m/s 709 mmHg 44%
    19:00 +30°C° 0 mm 2 m/s 709 mmHg 46%
    20:00 +29°C° 0,2 mm 2 m/s 710 mmHg 49%
    21:00 +29°C° 0,2 mm 2 m/s 710 mmHg 52%
    22:00 +28°C° 0,2 mm 3 m/s 711 mmHg 55%
    23:00 +27°C° 0 mm 3 m/s 711 mmHg 57%

    Après-demain, 21 Août, Mardi

    Heure Température Précipitation Vent Pression Humidité
    00:00 +27°C° 0 mm 3 m/s 711 mmHg 59%
    01:00 +26°C° 0 mm 3 m/s 710 mmHg 61%
    02:00 +26°C° 0 mm 3 m/s 710 mmHg 62%
    03:00 +25°C° 0 mm 3 m/s 710 mmHg 63%
    04:00 +25°C° 0 mm 3 m/s 710 mmHg 64%
    05:00 +25°C° 0 mm 3 m/s 710 mmHg 64%
    06:00 +25°C° 0 mm 4 m/s 710 mmHg 63%
    07:00 +25°C° 0 mm 4 m/s 711 mmHg 63%
    08:00 +27°C° 0 mm 4 m/s 711 mmHg 56%
    09:00 +29°C° 0 mm 4 m/s 712 mmHg 49%
    10:00 +32°C° 0 mm 4 m/s 713 mmHg 42%
    11:00 +34°C° 0 mm 3 m/s 712 mmHg 38%
    12:00 +35°C° 0 mm 3 m/s 711 mmHg 34%
    13:00 +37°C° 0 mm 3 m/s 711 mmHg 30%
    14:00 +36°C° 0 mm 3 m/s 710 mmHg 30%
    15:00 +36°C° 0 mm 3 m/s 709 mmHg 30%
    16:00 +36°C° 0 mm 2 m/s 708 mmHg 30%
    17:00 +35°C° 0 mm 2 m/s 709 mmHg 33%
    18:00 +34°C° 0 mm 2 m/s 709 mmHg 35%
    19:00 +31°C° 0 mm 1 m/s 709 mmHg 38%
    20:00 +31°C° 0 mm 1 m/s 710 mmHg 39%
    21:00 +31°C° 0 mm 1 m/s 710 mmHg 40%
    22:00 +30°C° 0 mm 1 m/s 711 mmHg 41%
    23:00 +30°C° 0 mm 2 m/s 710 mmHg 43%

    22 Août, Mercredi

    Heure Température Précipitation Vent Pression Humidité
    00:00 +29°C° 0 mm 2 m/s 710 mmHg 45%
    01:00 +28°C° 0 mm 2 m/s 710 mmHg 47%
    02:00 +28°C° 0 mm 2 m/s 710 mmHg 50%
    03:00 +27°C° 0 mm 2 m/s 710 mmHg 53%
    04:00 +26°C° 0 mm 2 m/s 709 mmHg 56%
    05:00 +26°C° 0 mm 2 m/s 710 mmHg 57%
    06:00 +26°C° 0 mm 3 m/s 710 mmHg 58%
    07:00 +26°C° 0 mm 3 m/s 711 mmHg 60%
    08:00 +27°C° 0 mm 3 m/s 711 mmHg 55%
    09:00 +29°C° 0 mm 3 m/s 712 mmHg 50%
    10:00 +30°C° 0 mm 3 m/s 712 mmHg 45%
    11:00 +31°C° 0 mm 3 m/s 712 mmHg 42%
    12:00 +34°C° 0 mm 3 m/s 711 mmHg 39%
    13:00 +35°C° 0 mm 3 m/s 710 mmHg 35%
    14:00 +35°C° 0 mm 3 m/s 710 mmHg 35%
    15:00 +35°C° 0 mm 3 m/s 709 mmHg 36%
    16:00 +35°C° 0 mm 3 m/s 709 mmHg 36%
    17:00 +34°C° 0 mm 2 m/s 709 mmHg 38%
    18:00 +31°C° 0 mm 2 m/s 710 mmHg 41%
    19:00 +30°C° 0 mm 2 m/s 710 mmHg 43%
    20:00 +30°C° 0 mm 2 m/s 710 mmHg 45%
    21:00 +29°C° 0 mm 2 m/s 711 mmHg 47%
    22:00 +28°C° 0 mm 2 m/s 711 mmHg 49%
    23:00 +28°C° 0 mm 2 m/s 711 mmHg 49%

    23 Août, Jeudi

    Heure Température Précipitation Vent Pression Humidité
    00:00 +27°C° 0 mm 2 m/s 710 mmHg 50%
    01:00 +27°C° 0 mm 2 m/s 710 mmHg 50%
    02:00 +26°C° 0 mm 2 m/s 710 mmHg 51%
    03:00 +26°C° 0 mm 2 m/s 710 mmHg 52%
    04:00 +25°C° 0 mm 2 m/s 710 mmHg 53%
    05:00 +25°C° 0 mm 3 m/s 710 mmHg 55%
    06:00 +25°C° 0 mm 3 m/s 710 mmHg 57%
    07:00 +25°C° 0 mm 3 m/s 711 mmHg 58%
    08:00 +27°C° 0 mm 3 m/s 711 mmHg 52%
    09:00 +29°C° 0 mm 3 m/s 712 mmHg 46%
    10:00 +31°C° 0 mm 3 m/s 712 mmHg 40%
    11:00 +33°C° 0 mm 3 m/s 711 mmHg 37%
    12:00 +35°C° 0 mm 3 m/s 710 mmHg 35%
    13:00 +36°C° 0 mm 3 m/s 710 mmHg 32%
    14:00 +36°C° 0 mm 3 m/s 709 mmHg 32%
    15:00 +35°C° 0 mm 3 m/s 708 mmHg 33%
    16:00 +35°C° 0 mm 2 m/s 708 mmHg 34%
    17:00 +34°C° 0 mm 2 m/s 708 mmHg 36%
    18:00 +32°C° 0 mm 2 m/s 709 mmHg 39%
    19:00 +31°C° 0 mm 2 m/s 709 mmHg 42%
    20:00 +30°C° 0 mm 2 m/s 710 mmHg 42%
    21:00 +30°C° 0 mm 2 m/s 710 mmHg 43%
    22:00 +29°C° 0 mm 2 m/s 710 mmHg 44%
    23:00 +29°C° 0 mm 2 m/s 710 mmHg 46%

    24 Août, Vendredi

    Heure Température Précipitation Vent Pression Humidité
    00:00 +28°C° 0 mm 2 m/s 710 mmHg 47%
    01:00 +27°C° 0 mm 2 m/s 709 mmHg 48%
    02:00 +26°C° 0 mm 2 m/s 709 mmHg 49%
    03:00 +26°C° 0 mm 2 m/s 709 mmHg 50%
    04:00 +25°C° 0 mm 2 m/s 709 mmHg 51%
    05:00 +25°C° 0 mm 2 m/s 710 mmHg 50%
    06:00 +25°C° 0 mm 3 m/s 710 mmHg 49%
    07:00 +25°C° 0 mm 3 m/s 710 mmHg 48%
    08:00 +28°C° 0 mm 3 m/s 711 mmHg 43%
    09:00 +30°C° 0 mm 3 m/s 711 mmHg 38%
    10:00 +33°C° 0 mm 3 m/s 712 mmHg 33%
    11:00 +35°C° 0 mm 2 m/s 711 mmHg 31%
    12:00 +36°C° 0 mm 2 m/s 710 mmHg 28%
    13:00 +37°C° 0 mm 2 m/s 709 mmHg 26%
    14:00 +37°C° 0 mm 2 m/s 708 mmHg 27%
    15:00 +37°C° 0 mm 2 m/s 708 mmHg 27%
    16:00 +36°C° 0 mm 2 m/s 707 mmHg 28%
    17:00 +35°C° 0 mm 2 m/s 708 mmHg 30%
    18:00 +34°C° 0 mm 2 m/s 708 mmHg 33%
    19:00 +32°C° 0 mm 1 m/s 708 mmHg 36%
    20:00 +32°C° 0 mm 1 m/s 709 mmHg 37%
    21:00 +31°C° 0 mm 1 m/s 709 mmHg 39%
    22:00 +31°C° 0 mm 1 m/s 710 mmHg 40%
    23:00 +30°C° 0 mm 1 m/s 710 mmHg 41%
    Voir plus